• MPC Preparation (Info)

  • MPEC 2023-L46 : 2023 LN

    The following Minor Planet Electronic Circular may be linked-to from your own Web pages, but must not otherwise be redistributed electronically.

    A form allowing access to any MPEC is at the bottom of this page.


    Read MPEC 2023-L45 Read MPEC 2023-L47


    M.P.E.C. 2023-L46                                  Issued 2023 June 9, 14:10 UT
    
         The Minor Planet Electronic Circulars contain information on unusual
             minor planets, routine data on comets and natural satellites,
             and occasional editorial announcements.  They are published
        on behalf of Division F of the International Astronomical Union by the
              Minor Planet Center, Smithsonian Astrophysical Observatory,
                              Cambridge, MA 02138, U.S.A.
    			  
                 Prepared using the Tamkin Foundation Computer Network
    
                                  MPC@CFA.HARVARD.EDU
                URL https://www.minorplanetcenter.net/    ISSN 1523-6714
    
                                     2023 LN                                 
    
    
    Observations:
         K23L00N* C2023 06 07.32427915 38 22.734-06 46 06.35         21.48wXEL046F51
         K23L00N  C2023 06 07.34550515 38 21.786-06 47 24.67         21.16wXEL046F51
         K23L00N  C2023 06 07.35615715 38 21.328-06 48 04.00         21.66wXEL046F51
         K23L00N  C2023 06 07.44050615 38 17.611-06 53 14.45         22.51GVEL046F51
         K23L00N  C2023 06 07.44114715 38 17.589-06 53 17.10         21.51GVEL046F51
         K23L00N  C2023 06 08.20492915 38 12.852-07 41 05.77         21.8 GVEL046H01
         K23L00N  C2023 06 08.20606315 38 12.809-07 41 10.19         22.2 GVEL046H01
         K23L00N  C2023 06 08.22333015 38 12.130-07 42 15.62         21.0 GVEL046H01
         K23L00N  C2023 06 08.23262615 38 11.770-07 42 50.40         20.9 GVEL046H01
         K23L00N  C2023 06 09.29304015 38 01.617-08 50 29.18         21.2 GVEL046H01
         K23L00N  C2023 06 09.29874815 38 01.422-08 50 51.00         20.9 GVEL046H01
         K23L00N KC2023 06 09.30822115 38 01.095-08 51 27.59         21.7 GVEL046H01
    
    Observer details:
    F51 Pan-STARRS 1, Haleakala.  Observers J. Bulger, T. Lowe, P. Minguez, A.
        Schultz, I. Smith, K. Chambers.  Measurers K. Chambers, T. de Boer, J.
        Bulger, J. Fairlamb, H. Gao, M. Huber, C.-C. Lin, T. Lowe, E. Magnier, P.
        Minguez, Y. Ramanjooloo, A. Schultz, I. Smith, R. Wainscoat, R. Weryk, S.
        Chastel.  1.8-m Ritchey-Chretien + CCD.
    H01 Magdalena Ridge Observatory, Socorro.  Observers W. H. Ryan, E. V. Ryan.
        Measurer W. H. Ryan.  2.4-m f/8.9 Ritchey-Chretien + CCD.
    
    Orbital elements:
    2023 LN                                                  Earth MOID = 0.0848 AU
    Epoch 2023 Feb. 25.0 TT = JDT 2460000.5                 Alexandersen            
    M 279.41334              (2000.0)            P               Q                  
    n   0.64841426     Peri.  189.96788     +0.07087114     +0.99104090             
    a   1.3220088      Node    84.16039     -0.90716139     +0.11122816             
    e   0.1679104      Incl.    6.53412     -0.41477162     -0.07393392             
    P   1.52           H   25.33          G   0.15           U   9                  
    Residuals in seconds of arc
    230607 F51  0.1-  0.1-    230607 F51  0.0   0.1-    230608 H01  0.0   0.2+
    230607 F51  0.3-  0.0     230608 H01  0.0   0.1+    230609 H01  0.0   0.1-
    230607 F51  0.1-  0.1+    230608 H01  0.0   0.1-    230609 H01  0.0   0.1+
    230607 F51  0.0   0.1+    230608 H01  0.1-  0.2-    230609 H01  0.0   0.0
    
    Ephemeris:
    2023 LN                  a,e,i = 1.32, 0.17, 7                   q = 1.1000
    Date    TT    R. A. (2000) Decl.     Delta      r    Elong.  Phase     V
    2023 05 10    15 49 06.1 +09 29 01   0.1561  1.1485   151.0    25.2    22.8
    ...
    2023 05 25    15 43 22.8 +04 00 53   0.1226  1.1247   154.6    22.7    22.1
    ...
    2023 06 02    15 39 52.0 -01 44 54   0.1100  1.1150   155.3    22.3    21.8
    ...
    2023 06 08    15 38 13.8 -07 27 16   0.1033  1.1092   154.7    23.0    21.7
    2023 06 09    15 38 05.3 -08 30 36   0.1025  1.1083   154.5    23.3    21.7
    2023 06 10    15 37 59.6 -09 35 33   0.1016  1.1075   154.2    23.5    21.7
    ...
    2023 06 16    15 38 35.3 -16 33 13   0.09844 1.1036   151.8    25.8    21.7
    ...
    2023 06 24    15 43 40.5 -26 27 07   0.09860 1.1005   147.1    30.1    21.8
    ...
    2023 07 09    16 11 45.5 -42 57 13   0.1115  1.1018   137.8    38.3    22.3
    
    M. P. C. Staff               (C) Copyright 2023 MPC           M.P.E.C. 2023-L46
    


    Read MPEC 2023-L45 Read MPEC 2023-L47


    MPEC number:

    Enter an MPEC number in one of the following forms:

    • 1997-B01 (the full form)
    • J97B01 (the packed version of the full form)
    • B01 (the abbreviated form)